Time,TemperatureF,DewpointF,PressureIn,WindDirection,WindDirectionDegrees,WindSpeedMPH,WindSpeedGustMPH,Humidity,HourlyPrecipIn,Conditions,Clouds,dailyrainin,SoftwareType,DateUTC
2013-02-03 00:03:00,20.8,17.0,30.11,SSE,160,0.0,0.0,85,0.00,,,0.00,weatherlink.com 1.10,2013-02-03 05:03:00,
2013-02-03 00:18:00,20.8,17.0,30.11,SSE,160,0.0,1.0,85,0.00,,,0.00,weatherlink.com 1.10,2013-02-03 05:18:00,
2013-02-03 00:33:00,20.6,17.0,30.10,SSE,159,0.0,0.0,85,0.00,,,0.00,weatherlink.com 1.10,2013-02-03 05:33:00,
2013-02-03 00:48:00,20.5,17.0,30.10,SSE,160,0.0,0.0,86,0.00,,,0.00,weatherlink.com 1.10,2013-02-03 05:48:00,
2013-02-03 01:03:00,20.4,17.0,30.09,SSE,160,0.0,0.0,86,0.00,,,0.00,weatherlink.com 1.10,2013-02-03 06:03:00,
2013-02-03 01:18:00,20.5,17.0,30.09,SSE,160,0.0,0.0,87,0.00,,,0.00,weatherlink.com 1.10,2013-02-03 06:18:00,
2013-02-03 01:33:00,20.4,17.0,30.09,SSE,160,0.0,0.0,87,0.00,,,0.00,weatherlink.com 1.10,2013-02-03 06:33:00,
2013-02-03 01:48:00,20.5,18.0,30.09,SSE,160,0.0,0.0,88,0.00,,,0.00,weatherlink.com 1.10,2013-02-03 06:48:00,
2013-02-03 02:03:00,20.3,17.0,30.08,SSE,160,0.0,0.0,88,0.00,,,0.00,weatherlink.com 1.10,2013-02-03 07:03:00,
2013-02-03 02:18:00,20.0,17.0,30.07,SSE,160,0.0,0.0,89,0.00,,,0.00,weatherlink.com 1.10,2013-02-03 07:18:00,
2013-02-03 02:33:00,19.8,17.0,30.07,SSE,160,0.0,0.0,90,0.00,,,0.00,weatherlink.com 1.10,2013-02-03 07:33:00,
2013-02-03 02:48:00,19.5,17.0,30.06,SSE,160,0.0,0.0,90,0.00,,,0.00,weatherlink.com 1.10,2013-02-03 07:48:00,
2013-02-03 03:03:00,19.3,17.0,30.06,SSE,160,0.0,0.0,90,0.00,,,0.00,weatherlink.com 1.10,2013-02-03 08:03:00,
2013-02-03 03:19:00,19.0,17.0,30.05,SSE,160,0.0,0.0,90,0.00,,,0.00,weatherlink.com 1.10,2013-02-03 08:19:00,
2013-02-03 03:33:00,18.4,16.0,30.05,SSE,160,0.0,0.0,91,0.00,,,0.00,weatherlink.com 1.10,2013-02-03 08:33:00,
2013-02-03 03:48:00,18.0,16.0,30.04,SSE,160,0.0,1.0,91,0.00,,,0.00,weatherlink.com 1.10,2013-02-03 08:48:00,
2013-02-03 04:03:00,17.8,16.0,30.04,SSE,160,0.0,0.0,92,0.00,,,0.00,weatherlink.com 1.10,2013-02-03 09:03:00,
2013-02-03 04:19:00,17.4,16.0,30.03,SSE,160,0.0,1.0,92,0.00,,,0.00,weatherlink.com 1.10,2013-02-03 09:19:00,
2013-02-03 04:34:00,17.0,15.0,30.03,SSE,160,0.0,0.0,92,0.00,,,0.00,weatherlink.com 1.10,2013-02-03 09:34:00,
2013-02-03 04:49:00,16.6,15.0,30.02,SSE,160,0.0,1.0,92,0.00,,,0.00,weatherlink.com 1.10,2013-02-03 09:49:00,
2013-02-03 05:04:00,16.1,14.0,30.02,SSE,159,0.0,1.0,92,0.00,,,0.00,weatherlink.com 1.10,2013-02-03 10:04:00,
2013-02-03 05:19:00,15.8,14.0,30.02,SSE,160,0.0,1.0,92,0.00,,,0.00,weatherlink.com 1.10,2013-02-03 10:19:00,
2013-02-03 05:34:00,15.5,13.0,30.02,SSE,160,0.0,0.0,91,0.00,,,0.00,weatherlink.com 1.10,2013-02-03 10:34:00,
2013-02-03 05:49:00,15.4,14.0,30.02,SSE,160,0.0,0.0,92,0.00,,,0.00,weatherlink.com 1.10,2013-02-03 10:49:00,
2013-02-03 06:04:00,15.2,13.0,30.02,SSE,160,0.0,0.0,92,0.00,,,0.00,weatherlink.com 1.10,2013-02-03 11:04:00,
2013-02-03 06:19:00,15.1,13.0,30.02,SSE,160,0.0,0.0,92,0.00,,,0.00,weatherlink.com 1.10,2013-02-03 11:19:00,
2013-02-03 06:34:00,14.7,13.0,30.02,SSE,160,0.0,0.0,92,0.00,,,0.00,weatherlink.com 1.10,2013-02-03 11:34:00,
2013-02-03 06:49:00,14.7,13.0,30.02,SSE,160,0.0,0.0,93,0.00,,,0.00,weatherlink.com 1.10,2013-02-03 11:49:00,
2013-02-03 07:04:00,15.0,13.0,30.02,SSE,160,0.0,0.0,93,0.00,,,0.00,weatherlink.com 1.10,2013-02-03 12:04:00,
2013-02-03 07:19:00,15.3,14.0,30.02,SSE,160,0.0,0.0,93,0.00,,,0.00,weatherlink.com 1.10,2013-02-03 12:19:00,
2013-02-03 07:34:00,15.5,14.0,30.02,SSE,160,0.0,0.0,92,0.00,,,0.00,weatherlink.com 1.10,2013-02-03 12:34:00,
2013-02-03 07:49:00,15.6,14.0,30.03,SSE,160,0.0,0.0,92,0.00,,,0.00,weatherlink.com 1.10,2013-02-03 12:49:00,
2013-02-03 08:04:00,16.0,14.0,30.03,SSE,160,0.0,0.0,92,0.00,,,0.00,weatherlink.com 1.10,2013-02-03 13:04:00,
2013-02-03 08:19:00,16.7,15.0,30.04,SSE,160,0.0,0.0,92,0.00,,,0.00,weatherlink.com 1.10,2013-02-03 13:19:00,
2013-02-03 08:34:00,17.4,16.0,30.04,SSE,160,0.0,0.0,92,0.00,,,0.00,weatherlink.com 1.10,2013-02-03 13:34:00,
2013-02-03 08:49:00,18.4,17.0,30.03,SSE,160,0.0,0.0,92,0.00,,,0.00,weatherlink.com 1.10,2013-02-03 13:49:00,
2013-02-03 09:04:00,19.7,18.0,30.03,SSE,160,0.0,0.0,91,0.00,,,0.00,weatherlink.com 1.10,2013-02-03 14:04:00,
2013-02-03 09:19:00,20.9,19.0,30.03,SSE,160,0.0,0.0,91,0.00,,,0.00,weatherlink.com 1.10,2013-02-03 14:19:00,
2013-02-03 09:34:00,22.1,19.0,30.02,WSW,240,0.0,1.0,89,0.00,,,0.00,weatherlink.com 1.10,2013-02-03 14:34:00,
2013-02-03 09:49:00,22.7,19.0,30.02,WSW,239,0.0,0.0,84,0.00,,,0.00,weatherlink.com 1.10,2013-02-03 14:49:00,
2013-02-03 10:04:00,23.3,19.0,30.02,SW,233,0.0,1.0,83,0.00,,,0.00,weatherlink.com 1.10,2013-02-03 15:04:00,
2013-02-03 10:19:00,24.4,18.0,30.01,SW,232,0.0,1.0,77,0.00,,,0.00,weatherlink.com 1.10,2013-02-03 15:19:00,
2013-02-03 10:34:00,24.6,19.0,30.00,NNE,25,1.0,1.0,78,0.00,,,0.00,weatherlink.com 1.10,2013-02-03 15:34:00,
2013-02-03 10:49:00,25.6,19.0,30.00,NNE,25,0.0,1.0,75,0.00,,,0.00,weatherlink.com 1.10,2013-02-03 15:49:00,
2013-02-03 11:05:00,26.4,18.0,29.99,North,1,0.0,1.0,71,0.00,,,0.00,weatherlink.com 1.10,2013-02-03 16:05:00,
2013-02-03 11:19:00,27.1,16.0,29.98,SE,143,0.0,3.0,63,0.00,,,0.00,weatherlink.com 1.10,2013-02-03 16:19:00,
2013-02-03 11:34:00,27.8,15.0,29.97,South,172,1.0,2.0,60,0.00,,,0.00,weatherlink.com 1.10,2013-02-03 16:34:00,
2013-02-03 11:49:00,28.1,14.0,29.96,SE,145,0.0,2.0,57,0.00,,,0.00,weatherlink.com 1.10,2013-02-03 16:49:00,
2013-02-03 12:04:00,29.0,15.0,29.95,WSW,240,0.0,2.0,56,0.00,,,0.00,weatherlink.com 1.10,2013-02-03 17:04:00,
2013-02-03 12:20:00,29.9,16.0,29.93,SSE,166,0.0,2.0,56,0.00,,,0.00,weatherlink.com 1.10,2013-02-03 17:20:00,
2013-02-03 12:35:00,30.6,15.0,29.93,South,189,0.0,1.0,53,0.00,,,0.00,weatherlink.com 1.10,2013-02-03 17:35:00,
2013-02-03 12:50:00,29.8,14.0,29.91,NNW,338,0.0,1.0,53,0.00,,,0.00,weatherlink.com 1.10,2013-02-03 17:50:00,
2013-02-03 13:05:00,30.3,15.0,29.90,South,188,0.0,2.0,54,0.00,,,0.00,weatherlink.com 1.10,2013-02-03 18:05:00,
2013-02-03 13:20:00,32.1,16.0,29.89,SSE,163,0.0,1.0,52,0.00,,,0.00,weatherlink.com 1.10,2013-02-03 18:20:00,
2013-02-03 13:35:00,32.2,17.0,29.89,SW,225,0.0,2.0,53,0.00,,,0.00,weatherlink.com 1.10,2013-02-03 18:35:00,
2013-02-03 13:50:00,32.5,16.0,29.87,SW,225,0.0,2.0,51,0.00,,,0.00,weatherlink.com 1.10,2013-02-03 18:50:00,
2013-02-03 14:05:00,32.8,15.0,29.87,SSE,158,0.0,2.0,49,0.00,,,0.00,weatherlink.com 1.10,2013-02-03 19:05:00,
2013-02-03 14:20:00,32.6,16.0,29.86,West,270,0.0,1.0,51,0.00,,,0.00,weatherlink.com 1.10,2013-02-03 19:20:00,
2013-02-03 14:35:00,32.9,17.0,29.86,WNW,299,1.0,2.0,52,0.00,,,0.00,weatherlink.com 1.10,2013-02-03 19:35:00,
2013-02-03 14:50:00,32.9,16.0,29.86,SW,219,0.0,2.0,50,0.00,,,0.00,weatherlink.com 1.10,2013-02-03 19:50:00,
2013-02-03 15:05:00,32.6,16.0,29.86,South,170,0.0,1.0,51,0.00,,,0.00,weatherlink.com 1.10,2013-02-03 20:05:00,
2013-02-03 15:20:00,33.3,16.0,29.86,SSE,163,0.0,1.0,50,0.00,,,0.00,weatherlink.com 1.10,2013-02-03 20:20:00,
2013-02-03 15:35:00,33.6,16.0,29.86,SSE,153,0.0,2.0,49,0.00,,,0.00,weatherlink.com 1.10,2013-02-03 20:35:00,
2013-02-03 15:50:00,32.5,16.0,29.85,SSE,160,1.0,1.0,52,0.00,,,0.00,weatherlink.com 1.10,2013-02-03 20:50:00,
2013-02-03 16:05:00,30.9,16.0,29.85,SW,224,0.0,1.0,54,0.00,,,0.00,weatherlink.com 1.10,2013-02-03 21:05:00,
2013-02-03 16:20:00,30.1,16.0,29.85,WSW,241,0.0,1.0,56,0.00,,,0.00,weatherlink.com 1.10,2013-02-03 21:20:00,
2013-02-03 16:35:00,29.7,16.0,29.85,NNW,340,0.0,1.0,58,0.00,,,0.00,weatherlink.com 1.10,2013-02-03 21:35:00,
2013-02-03 16:50:00,29.6,17.0,29.85,NNW,343,0.0,1.0,59,0.00,,,0.00,weatherlink.com 1.10,2013-02-03 21:50:00,
2013-02-03 17:05:00,29.5,17.0,29.85,ENE,69,0.0,1.0,61,0.00,,,0.00,weatherlink.com 1.10,2013-02-03 22:05:00,
2013-02-03 17:20:00,28.9,18.0,29.84,North,353,0.0,1.0,65,0.00,,,0.00,weatherlink.com 1.10,2013-02-03 22:20:00,
2013-02-03 17:35:00,28.6,19.0,29.84,North,353,0.0,0.0,68,0.00,,,0.00,weatherlink.com 1.10,2013-02-03 22:35:00,
2013-02-03 17:50:00,28.0,19.0,29.84,North,353,0.0,0.0,68,0.00,,,0.00,weatherlink.com 1.10,2013-02-03 22:50:00,
2013-02-03 18:05:00,27.2,19.0,29.84,North,353,0.0,0.0,70,0.00,,,0.00,weatherlink.com 1.10,2013-02-03 23:05:00,
2013-02-03 18:20:00,26.2,18.0,29.84,North,352,0.0,0.0,72,0.00,,,0.00,weatherlink.com 1.10,2013-02-03 23:20:00,
2013-02-03 18:35:00,25.3,18.0,29.84,NW,326,0.0,1.0,74,0.00,,,0.00,weatherlink.com 1.10,2013-02-03 23:35:00,
2013-02-03 18:50:00,24.5,18.0,29.84,NW,325,0.0,0.0,76,0.00,,,0.00,weatherlink.com 1.10,2013-02-03 23:50:00,
2013-02-03 19:05:00,23.8,18.0,29.85,NW,325,0.0,0.0,77,0.00,,,0.00,weatherlink.com 1.10,2013-02-04 00:05:00,
2013-02-03 19:20:00,23.4,18.0,29.85,NW,325,0.0,0.0,79,0.00,,,0.00,weatherlink.com 1.10,2013-02-04 00:20:00,
2013-02-03 19:35:00,23.1,18.0,29.86,North,5,0.0,1.0,80,0.00,,,0.00,weatherlink.com 1.10,2013-02-04 00:35:00,
2013-02-03 19:50:00,22.8,18.0,29.85,NNE,18,0.0,1.0,81,0.00,,,0.00,weatherlink.com 1.10,2013-02-04 00:50:00,
2013-02-03 20:06:00,22.6,18.0,29.86,NNE,18,0.0,1.0,82,0.00,,,0.00,weatherlink.com 1.10,2013-02-04 01:06:00,
2013-02-03 20:21:00,22.5,18.0,29.86,NNE,18,0.0,0.0,83,0.00,,,0.00,weatherlink.com 1.10,2013-02-04 01:21:00,
2013-02-03 20:35:00,22.2,18.0,29.86,NNE,18,0.0,0.0,84,0.00,,,0.00,weatherlink.com 1.10,2013-02-04 01:35:00,
2013-02-03 20:50:00,22.0,18.0,29.86,NNE,18,0.0,0.0,84,0.00,,,0.00,weatherlink.com 1.10,2013-02-04 01:50:00,
2013-02-03 21:05:00,22.0,18.0,29.86,NNE,18,0.0,0.0,85,0.00,,,0.00,weatherlink.com 1.10,2013-02-04 02:05:00,
2013-02-03 21:20:00,21.7,18.0,29.86,NNE,18,0.0,1.0,86,0.00,,,0.00,weatherlink.com 1.10,2013-02-04 02:20:00,
2013-02-03 21:36:00,21.2,18.0,29.86,NNE,18,0.0,0.0,86,0.00,,,0.00,weatherlink.com 1.10,2013-02-04 02:36:00,
2013-02-03 21:50:00,20.9,18.0,29.86,NNE,18,0.0,0.0,87,0.00,,,0.00,weatherlink.com 1.10,2013-02-04 02:50:00,
2013-02-03 22:06:00,20.9,18.0,29.85,North,11,0.0,0.0,87,0.00,,,0.00,weatherlink.com 1.10,2013-02-04 03:06:00,
2013-02-03 22:20:00,20.7,18.0,29.85,North,11,0.0,0.0,88,0.00,,,0.00,weatherlink.com 1.10,2013-02-04 03:20:00,
2013-02-03 22:35:00,20.7,18.0,29.85,North,11,0.0,0.0,88,0.00,,,0.00,weatherlink.com 1.10,2013-02-04 03:35:00,
2013-02-03 22:50:00,20.8,18.0,29.85,North,10,0.0,0.0,88,0.00,,,0.00,weatherlink.com 1.10,2013-02-04 03:50:00,
2013-02-03 23:06:00,20.9,18.0,29.85,North,10,0.0,1.0,88,0.00,,,0.00,weatherlink.com 1.10,2013-02-04 04:06:00,
2013-02-03 23:20:00,20.9,18.0,29.85,North,10,0.0,0.0,88,0.00,,,0.00,weatherlink.com 1.10,2013-02-04 04:20:00,
2013-02-03 23:36:00,21.1,18.0,29.84,North,11,0.0,0.0,89,0.00,,,0.00,weatherlink.com 1.10,2013-02-04 04:36:00,
2013-02-03 23:50:00,21.3,18.0,29.84,North,10,0.0,0.0,88,0.00,,,0.00,weatherlink.com 1.10,2013-02-04 04:50:00,